Flag for Switzerland Weather past 2 weeks in Baar, Zug, Switzerland

Now
29 °F

Chilly.


Feels Like: 23 °F
Forecast: 26 / 38 °F
Wind: 6 mph from Southwest

Location: Zurich Town / Ville.

Current Time: Jan 26, 2015 at 6:17:31 PM

Latest Report: Jan 26, 2015 at 5:00 PM


Visibility: N/A

Pressure: 30.30 "Hg

Humidity: 92%

Dew point: 27 °F

Location of BaarLocation

Historic Weather in Baar — Graph

°F

Baar temperature yesterday

Maximum temperature yesterday: 33 °F (at 2:00 PM)
Minimum temperature yesterday: 29 °F (at 2:00 AM)
Average temperature yesterday: 30 °F

Past Weeks' High & Low Weather Summary

 TemperatureHumidityPressure
High54 °F (Jan 13, 1:00 PM)100% (Jan 17, 8:00 AM)30.53 "Hg (Jan 17, 8:00 AM)
Low26 °F (Jan 26, 7:00 AM)23% (Jan 13, 1:00 PM)29.70 "Hg (Jan 16, 4:00 PM)
Average35 °F83%30.09 "Hg
* Reported Jan 11 5:00 PM — Jan 26 5:00 PM, Baar, Weather by CustomWeather, © 2014

Note: Actual official high and low records may vary slightly from our data, if they occured in-between our weather recording intervals... More about our weather records

Advertising

Baar weather history for previous 24 hours

 ConditionsComfort  
Time TempWeatherWind HumidityBarometerVisibility
5:00 PM
Jan 26
29 °FChilly.6 mph92%30.30 "HgN/A
4:00 PM29 °FChilly.5 mph90%30.31 "HgN/A
3:00 PM28 °FChilly.5 mph94%30.33 "HgN/A
2:00 PM29 °FChilly.5 mph88%30.34 "HgN/A
1:00 PM30 °FOvercast.5 mph80%30.37 "HgN/A
12:00 PM30 °FChilly.3 mph77%30.39 "HgN/A
11:00 AM29 °FChilly.3 mph81%30.41 "HgN/A
10:00 AM28 °FChilly.3 mph85%30.42 "HgN/A
9:00 AM28 °FChilly.2 mph86%30.43 "HgN/A
8:00 AM27 °FChilly.2 mph86%30.43 "HgN/A
7:00 AM26 °FChilly.2 mph88%30.44 "HgN/A
6:00 AM26 °FChilly.1 mph90%30.44 "HgN/A
5:00 AM27 °FChilly.1 mph92%30.44 "HgN/A
3:00 AM27 °FChilly.1 mph95%30.44 "HgN/A
2:00 AM28 °FChilly.2 mph92%30.44 "HgN/A
1:00 AM28 °FChilly.No wind94%30.45 "HgN/A
12:00 AM29 °FChilly.1 mph91%30.46 "HgN/A
11:00 PM
Jan 25
29 °FChilly.1 mph89%30.46 "HgN/A
10:00 PM29 °FChilly.2 mph91%30.47 "HgN/A
9:00 PM29 °FChilly.1 mph92%30.47 "HgN/A
8:00 PM30 °FChilly.1 mph92%30.47 "HgN/A
7:00 PM30 °FChilly.1 mph92%30.47 "HgN/A
6:00 PM31 °FChilly.2 mph89%30.46 "HgN/A
Weather by CustomWeather, © 2014

See weather overviewHow to use our weather pages